[[{"header":{"parameterUnit":"m.s-1","parameterCategory":1,"la1":30.2992,"la2":30.254,"lo1":-89.0895,"lo2":-89.0443,"dy":0.0025,"dx":0.0025,"nx":19,"ny":19,"refTime":"2026-05-19T03:00:00:Z","depth":0,"parameterNumber":2,"parameterNumberName":"U-component_of_WINDS"},"data":[0,0,0,-2.5268,-2.527,-2.5349,-2.5349,-2.5458,-2.5459,0,0,0,0,0,0,0,0,0,0,0,-2.5249,-2.525,-2.5268,-2.527,-2.5349,-2.5349,-2.5458,-2.5459,0,0,0,0,0,0,0,0,0,0,0,-2.5249,-2.525,-2.5251,-2.527,-2.5349,-2.5349,-2.5457,-2.5395,0,0,0,0,0,0,0,0,0,0,-2.5317,-2.5304,-2.525,-2.5251,-2.5271,-2.5349,-2.5349,-2.5392,-2.5399,-2.5425,0,-2.545,0,-2.5456,-2.5467,-2.5467,0,0,0,-2.5267,-2.5299,-2.5316,-2.5251,-2.5272,-2.5348,-2.5312,-2.5396,-2.5404,-2.5435,-2.5451,-2.5455,-2.5458,-2.5467,-2.5468,-2.5631,-2.5632,0,0,-2.5262,-2.5266,-2.531,-2.5321,-2.5309,-2.531,-2.5315,-2.54,-2.5419,-2.5452,-2.5458,-2.546,-2.5468,-2.5469,-2.563,-2.5632,0,0,0,-2.5252,-2.5263,-2.5278,-2.5317,-2.533,-2.5312,-2.5318,-2.5415,-2.542,-2.5459,-2.5461,-2.5469,-2.547,-2.5629,-2.5631,-2.5679,0,0,0,-2.5249,-2.5257,-2.5276,-2.5279,-2.5329,-2.5374,-2.5331,-2.5414,-2.5423,-2.546,-2.5469,-2.5471,-2.5628,-2.563,-2.5676,-2.5701,0,0,0,-2.5243,-2.5256,-2.5269,-2.5279,-2.5313,-2.5372,-2.5381,-2.5416,-2.5425,-2.5467,-2.5472,-2.5628,-2.563,-2.5673,-2.5696,-2.5745,0,0,0,-2.5237,-2.5311,-2.527,-2.5355,-2.5313,-2.5402,-2.5381,-2.5447,-2.5489,-2.5469,-2.5629,-2.5631,-2.5672,-2.5693,-2.5741,-2.5786,-2.5805,0,0,-2.5333,-2.5323,-2.5373,-2.5338,-2.5435,-2.5389,-2.5494,-2.5529,-2.553,-2.5598,-2.5602,-2.5677,-2.5696,-2.5744,-2.5912,-2.5927,0,0,0,-2.5404,-2.544,-2.5465,-2.5505,-2.5534,-2.5561,-2.5579,-2.5593,-2.565,-2.5566,-2.5708,-2.5719,-2.5747,-2.5768,-2.5781,-2.5805,-2.5641,-2.5641,-2.564,-2.5545,-2.5542,-2.5624,-2.5631,-2.567,-2.5689,-2.5721,-2.5742,-2.5728,-2.5762,-2.5781,-2.5884,-2.5908,-2.5918,-2.5943,-2.5806,-2.5806,-2.5806,-2.5806,-2.5685,-2.5735,-2.5715,-2.5786,-2.5783,-2.5844,-2.5866,-2.5854,-2.591,-2.5868,-2.5893,-2.5847,-2.5935,-2.5956,-2.581,-2.5809,-2.5809,-2.5808,-2.5808,-2.5776,-2.5799,-2.5814,-2.5872,-2.5918,-2.5923,-2.5977,-2.5973,-2.5969,-2.5994,-2.6014,-2.6013,-2.6011,-2.6004,-2.6004,-2.6005,-2.6005,-2.6005,-2.6005,-2.5864,-2.5879,-2.5926,-2.5963,-2.5988,-2.6021,-2.6042,-2.6067,-2.6094,-2.6086,-2.6087,-2.6069,-2.5944,-2.5912,-2.6011,-2.601,-2.6009,-2.6009,-2.6008,-2.6005,-2.5972,-2.6044,-2.607,-2.6113,-2.6159,-2.6153,-2.6205,-2.6225,-2.6252,-2.623,-2.6138,-2.6128,-2.6118,-2.6091,-2.623,-2.623,-2.623,-2.623,-2.6081,-2.6075,-2.6148,-2.6189,-2.6229,-2.6231,-2.6312,-2.633,-2.6343,-2.6355,-2.6335,-2.63,-2.629,-2.6285,-2.6271,-2.6246,-2.6422,-2.6422,-2.6422,-2.6167,-2.6165,-2.6235,-2.6247,-2.6281,-2.6311,-2.6387,-2.6436,-2.6444,-2.643,-2.6365,-2.6357,-2.63,-2.6282,-2.6265,-2.6243,-2.6197,0,0]},{"header":{"parameterUnit":"m.s-1","parameterCategory":1,"la1":30.2992,"la2":30.254,"lo1":-89.0895,"lo2":-89.0443,"dy":0.0025,"dx":0.0025,"nx":19,"ny":19,"refTime":"2026-05-19T03:00:00:Z","depth":0,"parameterNumber":3,"parameterNumberName":"V-component_of_WINDS"},"data":[0,0,0,2.3562,2.3563,2.3635,2.3635,2.372,2.372,0,0,0,0,0,0,0,0,0,0,0,2.3537,2.3538,2.3562,2.3563,2.3635,2.3635,2.372,2.372,0,0,0,0,0,0,0,0,0,0,0,2.3537,2.3537,2.3538,2.3563,2.3635,2.3635,2.3719,2.3668,0,0,0,0,0,0,0,0,0,0,2.3599,2.3574,2.3537,2.3538,2.3564,2.3634,2.3635,2.3665,2.3671,2.3685,0,2.3697,0,2.371,2.3726,2.3726,0,0,0,2.3565,2.3569,2.3591,2.3538,2.3565,2.3634,2.3603,2.3668,2.3675,2.3692,2.3698,2.3701,2.3711,2.3726,2.3727,2.3801,2.3802,0,0,2.3561,2.3548,2.3587,2.3595,2.3585,2.3601,2.3605,2.3672,2.3678,2.3698,2.3703,2.3713,2.3727,2.3727,2.3801,2.3802,0,0,0,2.3549,2.3545,2.3566,2.3592,2.3605,2.3603,2.3608,2.3675,2.3683,2.3704,2.3714,2.3727,2.3728,2.3801,2.3801,2.3801,0,0,0,2.3546,2.3538,2.3564,2.3557,2.3604,2.3641,2.3609,2.3678,2.3686,2.3713,2.3727,2.3729,2.3801,2.3801,2.38,2.3803,0,0,0,2.3534,2.3536,2.3546,2.3556,2.3586,2.364,2.3652,2.368,2.3692,2.3726,2.3729,2.3801,2.3801,2.38,2.3802,2.3819,0,0,0,2.3516,2.3543,2.3545,2.358,2.3585,2.364,2.3652,2.3693,2.3722,2.3728,2.3801,2.3801,2.38,2.3802,2.3818,2.3831,2.3835,0,0,2.3543,2.3546,2.3567,2.3571,2.3622,2.363,2.368,2.3719,2.3734,2.3778,2.378,2.3801,2.3802,2.3819,2.3862,2.3865,0,0,0,2.3571,2.3587,2.3603,2.3631,2.3663,2.369,2.3723,2.3737,2.3775,2.3754,2.3812,2.3813,2.3823,2.383,2.3832,2.3842,2.3804,2.3804,2.3804,2.359,2.3609,2.3646,2.3674,2.3701,2.3735,2.3759,2.3784,2.3794,2.3808,2.3821,2.3844,2.3851,2.3854,2.3864,2.3829,2.3829,2.3829,2.3829,2.3632,2.3656,2.3671,2.3712,2.3731,2.3765,2.38,2.3806,2.3841,2.3836,2.3846,2.3839,2.3856,2.3866,2.3829,2.3829,2.3829,2.3829,2.3829,2.3646,2.3661,2.3679,2.3723,2.3754,2.378,2.3813,2.383,2.3845,2.3855,2.3871,2.3871,2.3873,2.3862,2.3862,2.3862,2.3862,2.3862,2.3862,2.3654,2.3674,2.37,2.3737,2.3757,2.3787,2.3822,2.3843,2.3869,2.3879,2.3879,2.3888,2.3855,2.3846,2.3863,2.3863,2.3863,2.3863,2.3863,2.3689,2.3684,2.3724,2.3745,2.3789,2.3819,2.384,2.3881,2.39,2.3916,2.3923,2.3896,2.39,2.3898,2.3891,2.3919,2.3919,2.3919,2.3919,2.3701,2.3705,2.375,2.3783,2.3816,2.3839,2.3884,2.3912,2.394,2.3953,2.3951,2.3943,2.3941,2.3946,2.3943,2.3937,2.3976,2.3976,2.3976,2.3724,2.3732,2.3767,2.3795,2.3832,2.3862,2.3905,2.3941,2.3971,2.3979,2.3964,2.3961,2.3949,2.3943,2.395,2.3945,2.3934,0,0]}]]